Hourly Weather Ruszkowo

Today, 21 April, Wednesday

Time Temperature Precipitation Wind Pressure Humidity
00:00 +7°C° 0 mm 2 mps 748 mmHg 78%
01:00 +7°C° 0 mm 2 mps 748 mmHg 79%
02:00 +7°C° 0.1 mm 2 mps 748 mmHg 82%
03:00 +7°C° 0.1 mm 2 mps 748 mmHg 84%
04:00 +7°C° 0.1 mm 2 mps 747 mmHg 86%
05:00 +8°C° 0.1 mm 2 mps 747 mmHg 83%
06:00 +10°C° 0.1 mm 1 mps 748 mmHg 80%
07:00 +11°C° 0.1 mm 1 mps 748 mmHg 77%
08:00 +12°C° 0.2 mm 1 mps 747 mmHg 72%
09:00 +13°C° 0.2 mm 2 mps 747 mmHg 66%
10:00 +14°C° 0.2 mm 2 mps 747 mmHg 61%
11:00 +15°C° 0.3 mm 2 mps 747 mmHg 57%
12:00 +14°C° 0.3 mm 3 mps 747 mmHg 53%
13:00 +16°C° 0.3 mm 3 mps 747 mmHg 49%
14:00 +16°C° 0.1 mm 3 mps 747 mmHg 52%
15:00 +14°C° 0.1 mm 3 mps 746 mmHg 55%
16:00 +14°C° 0.1 mm 3 mps 746 mmHg 58%
17:00 +13°C° 0 mm 3 mps 746 mmHg 63%
18:00 +11°C° 0 mm 3 mps 746 mmHg 67%
19:00 +10°C° 0 mm 3 mps 746 mmHg 72%
20:00 +10°C° 0 mm 3 mps 746 mmHg 73%
21:00 +9°C° 0 mm 2 mps 746 mmHg 73%
22:00 +9°C° 0 mm 2 mps 746 mmHg 74%
23:00 +8°C° 0.1 mm 3 mps 747 mmHg 79%

Tomorrow, 22 April, Thursday

Time Temperature Precipitation Wind Pressure Humidity
00:00 +7°C° 0.1 mm 3 mps 747 mmHg 83%
01:00 +6°C° 0.1 mm 4 mps 747 mmHg 87%
02:00 +5°C° 0.1 mm 4 mps 747 mmHg 86%
03:00 +5°C° 0.1 mm 5 mps 747 mmHg 86%
04:00 +3°C° 0.1 mm 5 mps 747 mmHg 85%
05:00 +3°C° 0.1 mm 5 mps 748 mmHg 80%
06:00 +3°C° 0.1 mm 6 mps 748 mmHg 75%
07:00 +2°C° 0.1 mm 6 mps 748 mmHg 70%
08:00 +3°C° 0 mm 7 mps 749 mmHg 66%
09:00 +4°C° 0 mm 7 mps 749 mmHg 61%
10:00 +4°C° 0 mm 8 mps 749 mmHg 57%
11:00 +4°C° 0 mm 7 mps 749 mmHg 58%
12:00 +4°C° 0 mm 7 mps 749 mmHg 59%
13:00 +4°C° 0 mm 7 mps 750 mmHg 61%
14:00 +4°C° 0.1 mm 7 mps 749 mmHg 62%
15:00 +5°C° 0.1 mm 7 mps 749 mmHg 63%
16:00 +5°C° 0.1 mm 7 mps 749 mmHg 65%
17:00 +4°C° 0.2 mm 6 mps 749 mmHg 69%
18:00 +3°C° 0.2 mm 6 mps 750 mmHg 74%
19:00 +2°C° 0.2 mm 5 mps 750 mmHg 78%
20:00 +1°C° 0 mm 5 mps 750 mmHg 80%
21:00 +1°C° 0 mm 5 mps 750 mmHg 81%
22:00 0°C° 0 mm 4 mps 750 mmHg 83%
23:00 0°C° 0 mm 5 mps 750 mmHg 82%

Day after tomorrow, 23 April, Friday

Time Temperature Precipitation Wind Pressure Humidity
00:00 0°C° 0 mm 5 mps 750 mmHg 81%
01:00 -1°C° 0 mm 5 mps 750 mmHg 81%
02:00 -1°C° 0 mm 5 mps 750 mmHg 80%
03:00 -1°C° 0 mm 5 mps 750 mmHg 80%
04:00 -1°C° 0 mm 5 mps 750 mmHg 80%
05:00 -1°C° 0 mm 6 mps 751 mmHg 76%
06:00 +1°C° 0 mm 6 mps 751 mmHg 73%
07:00 +1°C° 0 mm 6 mps 751 mmHg 70%
08:00 +2°C° 0.1 mm 7 mps 751 mmHg 66%
09:00 +3°C° 0.1 mm 7 mps 752 mmHg 62%
10:00 +4°C° 0.1 mm 7 mps 752 mmHg 58%
11:00 +5°C° 0.2 mm 7 mps 752 mmHg 54%
12:00 +5°C° 0.2 mm 7 mps 752 mmHg 51%
13:00 +7°C° 0.2 mm 6 mps 752 mmHg 47%
14:00 +7°C° 0.2 mm 6 mps 752 mmHg 50%
15:00 +7°C° 0.2 mm 6 mps 752 mmHg 53%
16:00 +5°C° 0.2 mm 6 mps 752 mmHg 55%
17:00 +5°C° 0.1 mm 5 mps 753 mmHg 60%
18:00 +3°C° 0.1 mm 4 mps 753 mmHg 66%
19:00 +2°C° 0.1 mm 3 mps 754 mmHg 71%
20:00 +1°C° 0 mm 3 mps 754 mmHg 73%
21:00 0°C° 0 mm 3 mps 754 mmHg 76%
22:00 -1°C° 0 mm 3 mps 754 mmHg 78%
23:00 -1°C° 0 mm 3 mps 754 mmHg 77%

24 April, Saturday

Time Temperature Precipitation Wind Pressure Humidity
00:00 -1°C° 0 mm 3 mps 754 mmHg 75%
01:00 -2°C° 0 mm 4 mps 754 mmHg 74%
02:00 -2°C° 0 mm 4 mps 754 mmHg 74%
03:00 -2°C° 0 mm 4 mps 754 mmHg 74%
04:00 -2°C° 0 mm 4 mps 754 mmHg 74%
05:00 -1°C° 0 mm 4 mps 754 mmHg 70%
06:00 0°C° 0 mm 5 mps 754 mmHg 66%
07:00 +1°C° 0 mm 6 mps 754 mmHg 63%
08:00 +3°C° 0 mm 6 mps 754 mmHg 55%
09:00 +4°C° 0 mm 6 mps 754 mmHg 48%
10:00 +7°C° 0 mm 6 mps 754 mmHg 40%
11:00 +5°C° 0.1 mm 6 mps 754 mmHg 46%
12:00 +5°C° 0.1 mm 6 mps 754 mmHg 53%
13:00 +5°C° 0.1 mm 7 mps 754 mmHg 59%
14:00 +5°C° 0.3 mm 6 mps 754 mmHg 59%
15:00 +4°C° 0.3 mm 6 mps 754 mmHg 59%
16:00 +4°C° 0.3 mm 6 mps 753 mmHg 59%
17:00 +3°C° 0.1 mm 5 mps 754 mmHg 63%
18:00 +1°C° 0.1 mm 4 mps 754 mmHg 67%
19:00 0°C° 0.1 mm 4 mps 754 mmHg 71%
20:00 0°C° 0 mm 3 mps 755 mmHg 75%
21:00 -1°C° 0 mm 3 mps 755 mmHg 78%
22:00 -2°C° 0 mm 3 mps 755 mmHg 81%
23:00 -2°C° 0 mm 3 mps 755 mmHg 81%

25 April, Sunday

Time Temperature Precipitation Wind Pressure Humidity
00:00 -3°C° 0 mm 4 mps 755 mmHg 81%
01:00 -3°C° 0 mm 4 mps 755 mmHg 80%
02:00 -3°C° 0 mm 4 mps 755 mmHg 79%
03:00 -3°C° 0 mm 4 mps 755 mmHg 77%
04:00 -3°C° 0 mm 4 mps 755 mmHg 76%
05:00 -2°C° 0 mm 5 mps 755 mmHg 73%
06:00 0°C° 0 mm 5 mps 755 mmHg 69%
07:00 +1°C° 0 mm 6 mps 755 mmHg 66%
08:00 +2°C° 0.1 mm 6 mps 755 mmHg 60%
09:00 +3°C° 0.1 mm 6 mps 754 mmHg 54%
10:00 +5°C° 0.1 mm 7 mps 754 mmHg 49%
11:00 +5°C° 0.1 mm 7 mps 754 mmHg 48%
12:00 +5°C° 0.1 mm 6 mps 754 mmHg 47%
13:00 +7°C° 0.1 mm 6 mps 754 mmHg 46%
14:00 +5°C° 0.3 mm 6 mps 754 mmHg 52%
15:00 +4°C° 0.3 mm 6 mps 754 mmHg 59%
16:00 +3°C° 0.3 mm 6 mps 754 mmHg 66%
17:00 +2°C° 0.1 mm 5 mps 754 mmHg 68%
18:00 +1°C° 0.1 mm 5 mps 754 mmHg 69%
19:00 0°C° 0.1 mm 4 mps 754 mmHg 71%
20:00 -1°C° 0 mm 4 mps 754 mmHg 77%
21:00 -1°C° 0 mm 3 mps 754 mmHg 82%
22:00 -2°C° 0 mm 3 mps 755 mmHg 88%
23:00 -1°C° 0 mm 3 mps 754 mmHg 84%

26 April, Monday

Time Temperature Precipitation Wind Pressure Humidity
00:00 -2°C° 0 mm 4 mps 754 mmHg 80%
01:00 -1°C° 0 mm 4 mps 754 mmHg 76%
02:00 -1°C° 0 mm 5 mps 754 mmHg 75%
03:00 -1°C° 0 mm 5 mps 754 mmHg 74%
04:00 -1°C° 0 mm 5 mps 753 mmHg 73%
05:00 0°C° 0 mm 5 mps 753 mmHg 72%
06:00 -1°C° 0 mm 6 mps 754 mmHg 72%
07:00 +1°C° 0 mm 6 mps 754 mmHg 71%
08:00 +2°C° 0 mm 6 mps 754 mmHg 69%
09:00 +3°C° 0 mm 6 mps 754 mmHg 67%
10:00 +3°C° 0 mm 6 mps 754 mmHg 65%
11:00 +4°C° 0 mm 6 mps 754 mmHg 65%
12:00 +5°C° 0 mm 5 mps 754 mmHg 65%
13:00 +5°C° 0 mm 5 mps 754 mmHg 66%
14:00 +5°C° 0 mm 5 mps 754 mmHg 68%
15:00 +5°C° 0 mm 5 mps 754 mmHg 71%
16:00 +5°C° 0 mm 4 mps 754 mmHg 73%
17:00 +4°C° 0 mm 3 mps 754 mmHg 77%
18:00 +4°C° 0 mm 3 mps 754 mmHg 80%
19:00 +4°C° 0 mm 2 mps 754 mmHg 84%
20:00 +4°C° 0 mm 1 mps 754 mmHg 85%
21:00 +3°C° 0 mm 1 mps 754 mmHg 86%
22:00 +2°C° 0 mm 0 mps 754 mmHg 87%
23:00 +2°C° 0 mm 1 mps 753 mmHg 88%
Show more